Regional Weather Roundup
Issued by NWS Grand Forks, ND

Home | Current Version | Previous Version | Text Only | Print | Product List | Glossary On
Versions: 1 2 3 4 5 6 7 8 9 10 11 12 13 14 15 16 17 18 19 20 21 22 23 24 25 26 27 28 29 30 31 32 33 34 35 36 37 38 39 40 41 42 43 44 45 46 47 48 49 50
000
ASUS43 KFGF 282110
RWRFGF
PRAIRIE TO PINES  WEATHER ROUNDUP
NATIONAL WEATHER SERVICE EASTERN NORTH DAKOTA/GRAND FORKS ND
300 PM CST WED JAN 28 2015

 **SATELLITE DATA USED TO AUGMENT SKY COVER AT AUTOMATED STATIONS**
 *****  WEATHER ACROSS EASTERN NORTH DAKOTA  *****

CITY           SKY/WX    TMP DP  RH WIND       PRES   REMARKS
GRAND FORKS    CLOUDY    34  32  92 NW9       29.77S FOG
GRAND FRKS AFB CLOUDY    32  32 100 N7        29.78S FOG
GRAND FRKS NWS   N/A     32 N/A N/A MISG        N/A
DEVILS LAKE    CLOUDY    30  28  93 N20       29.82R WCI  18
FARGO          CLOUDY    36  31  82 S10       29.76R HAZE
WAHPETON ARPT  CLOUDY    34  32  93 S7        29.76S
$$

 ***** WEATHER ACROSS CENTRAL AND WESTERN NORTH DAKOTA  *****

CITY           SKY/WX    TMP DP  RH WIND       PRES   REMARKS
BISMARCK       CLOUDY    33  30  88 NW17G30   29.90R WCI  22
MINOT          CLOUDY    28  26  92 NW18      29.94R FOG     WCI  15
JAMESTOWN      CLOUDY    32  31  96 N16       29.78R FOG     WCI  21
MINOT AFB      NOT AVBL
GARRISON         N/A     31  28  89 NW22      29.93R WCI  18
WILLISTON      CLOUDY    32  28  85 N16       30.06R WCI  21
DICKINSON      CLOUDY    32  28  85 NW32G38   29.96R FOG     WCI  17
HETTINGER      CLOUDY    36  30  79 NW31G40   29.95R
$$

 *****  OTHER AIRPORT OBSERVATIONS IN OUR AREA  *****

CITY           SKY/WX    TMP DP  RH WIND       PRES   REMARKS
WALHALLA         N/A     32  32 100 N17       29.84R FOG     WCI  21
GRAFTON AIRPOR NOT AVBL
VALLEY CITY AR MIX PCPN  32  32 100 N14G20    29.77R WCI  22
CANDO          CLOUDY    28  28 100 N20       29.87R FOG     WCI  15
CAVALIER APRT  CLOUDY    32  32 100 N14       29.82R FOG     WCI  22
GWINNER        CLOUDY    37  37 100 CALM      29.74R
SHEYENNE NWR     N/A     36  33  87 S2        29.95
ROLLA          CLOUDY    25  25 100 N24       29.87R FOG     WCI   9
 ***** THE ABOVE OBSERVATIONS ARE NON NWS ARE NOT QUALITY
       CONTROLLED AND MAY MIS-REPORT RAIN FOR SNOW...
$$

  *****  WEATHER ACROSS NORTHERN MINNESOTA  *****

CITY           SKY/WX    TMP DP  RH WIND       PRES   REMARKS
FLAG ISLAND    CLOUDY    28  28 100 CALM      29.78S FOG
WARROAD        FOG       32  28  86 CALM      29.78R VSB 3/4
ROSEAU         FOG       34  28  80 CALM      29.78R VSB 3/4
HALLOCK        CLOUDY    34  32  93 N3        29.79R FOG
THF RVR FALLS  CLOUDY    34  30  86 W6        29.78R
BAUDETTE       CLOUDY    31  29  92 S5        29.77R FOG
WASKISH        CLOUDY    30  30 100 CALM      29.77F FOG
CROOKSTON      CLOUDY    34  32  93 W6        29.79R FOG
STEPHEN NDAWN    N/A     34  34 100 NW5         N/A
GREENBUSH NDAW   N/A     32  32 100 N3          N/A
$$
  *****  WEATHER ACROSS CENTRAL AND WEST MINNESOTA  *****

CITY           SKY/WX    TMP DP  RH WIND       PRES   REMARKS
FOSSTON        CLOUDY    32  30  93 S8        29.76S FOG     WCI  25
BEMIDJI        CLOUDY    31  30  96 S5        29.76S FOG
PARK RAPIDS    CLOUDY    32  30  92 S8        29.75R FOG     WCI  25
ELBOW LAKE     CLOUDY    32  31  97 S12       29.74F FOG     WCI  23
WADENA         CLOUDY    30  28  93 S10       29.75S FOG     WCI  21
DETROIT LAKES  CLOUDY    34  32  93 S8        29.75S FOG
MOORHEAD       CLOUDY    36  36 100 S9        29.78R FOG
FERGUS FALLS   CLOUDY    34  30  86 S12       29.78R FOG
MORRIS MN      CLOUDY    34  32  93 SE8       29.74R FOG
STAPLES        CLOUDY    30  28  93 S9        29.76F FOG     WCI  22
$$
  *****  WEATHER ELSEWHERE ACROSS MINNESOTA  *****

CITY           SKY/WX    TMP DP  RH WIND       PRES   REMARKS
DULUTH         CLOUDY    29  22  75 S10       29.80F HAZE    WCI  20
INTRNTL FALLS  CLOUDY    27  24  89 SE7       29.79F FOG     WCI  19
ELY            CLOUDY    27  23  86 S7        29.80S WCI  19
CLOQUET        CLOUDY    28  23  80 S9G16     29.80F WCI  20
WHEATON        CLOUDY    32  30  93 SE7       29.78R FOG
BRAINERD       CLOUDY    29  26  89 SE12      29.78F FOG     WCI  19
HIBBING        CLOUDY    28  22  78 S6        29.80F WCI  22
ALEXANDRIA     CLOUDY    31  30  96 SE13      29.76R FOG     WCI  21
SAINT CLOUD    CLOUDY    29  26  89 SE12      29.79F FOG     WCI  19
MINNEAPOLIS    CLOUDY    30  26  85 SE12      29.81F FOG     WCI  20
$$

  *****  WEATHER ACROSS SOUTH DAKOTA  *****

CITY           SKY/WX    TMP DP  RH WIND       PRES   REMARKS
SIOUX FALLS    PTSUNNY   45  35  68 CALM      29.67S
BROOKINGS      NOT AVBL
WATERTOWN      CLOUDY    36  32  85 CALM      29.69S
HURON          MOSUNNY   46  36  68 N12       29.70R
SISSETON         N/A     35  33  92 CALM      29.73R
ABERDEEN       CLOUDY    42  34  73 CALM      29.73R
MITCHELL       SUNNY     46  37  71 NW15      29.70S
PIERRE         MOSUNNY   56  31  38 NW29G36   29.76R
MOBRIDGE       PTSUNNY   48  35  60 NW21G29   29.78R
RAPID CITY     CLOUDY    56  25  30 NW29G38   29.92R
$$

  *****  SOME WEATHER IN NEARBY STATES *****

CITY           SKY/WX    TMP DP  RH WIND       PRES   REMARKS
GLASGOW MT     CLOUDY    35  30  82 NW24G30   30.18R WCI  23
GREAT FALLS MT PTSUNNY   46  32  58 N9        30.25R
CHEYENNE WY    CLOUDY    49  27  42 NW25G41   30.07R
SCOTTSBLUFF NE   N/A     49  38  65 NW22G32   30.03R
OMAHA NE       PTSUNNY   55  36  48 S9        29.65F
DES MOINES IA  CLOUDY    50  36  58 S20       29.72F
DAVENPORT IA   MOSUNNY   36  27  69 SE22G30   29.93F
CHICAGO IL     CLOUDY    33  21  61 S16       30.09F WCI  23
EAU CLAIRE WI  CLOUDY    30  24  78 SE14      29.86F HAZE    WCI  19
LA CROSSE WI   CLOUDY    35  26  69 SE10      29.86F
$$

  *****  SOME NATIONAL WEATHER *****

CITY           SKY/WX    TMP DP  RH WIND       PRES   REMARKS
LA GUARDIA NY  SUNNY     33  11  39 NW8       30.10R
RALEIGH NC     MOSUNNY   45   8  22 N3        30.23R
ATLANTA GA     MOSUNNY   54  21  27 SE3       30.23R
NEW ORLEANS LA MOSUNNY   67  33  28 E6        30.23F
OKLAHOMA CITY  CLOUDY    76  42  29 SW18G24   29.87F
ALBUQUERQUE NM PTSUNNY   62  28  27 W13       30.17F
SALT LAKE CITY PTSUNNY   49  36  61 N8        30.29F
LOS ANGELES CA CLOUDY    67  53  61 W9        30.08F
BOISE ID       MOSUNNY   43  37  81 CALM      30.35F FOG
SEATTLE WA     PTSUNNY   50  44  80 CALM      30.38F
$$

*** WEATHER ACROSS MANITOBA...SASKATCHEWAN AND ONTARIO ***
                ***ONTARIO***

CITY           SKY/WX    TMP DP  RH WIND       PRES   REMARKS
GERALDTON      LGT SNOW  28  27  93 SE7       29.97S VSB 3/4 WCI  21
THUNDER BAY    CLOUDY    28  27  93 E12       29.91F WCI  18
SIOUX LOOKOUT  LGT SNOW  28  27  93 CALM      29.79F VSB 5/8
TORONTO        MOSUNNY   28   7  40 S5        30.28R WCI  23
BIG TROUT LK   PTCLDY     0  -8  71 E5        30.12F WCI -10
PICKLE LAKE    LGT SNOW  18  14  86 NE10G17   29.91F VSB 3/4 WCI   6
DRYDEN         FRZ RAIN  27  25  93 S5        29.79S WCI  21
KENORA         FRZ DRZL  27  27 100 SE3       29.78F FOG
$$
                *** MANITOBA***

CITY           SKY/WX    TMP DP  RH WIND       PRES   REMARKS
BRANDON        CLOUDY    23  18  80 N20       29.95R WCI   8
DAUPHIN        LGT SNOW  14  10  85 NW7       30.04S WCI   4
ISLAND LAKE    CLOUDY     1  -6  71 NE7       30.12R WCI -11
PILOT MOUND      N/A     23  23 100 N14         N/A  WCI  11
THE PAS        FLURRIES   0  -4  85 N5        30.15S WCI -10
THOMPSON       LGT SNOW  -8 -15  71 NE6       30.23S WCI -21
WINNIPEG       FLURRIES  30  28  93 N14       29.85R WCI  20
LYNN LAKE      FLURRIES  -8 -13  77 NE3       30.21S
CHURCHILL      MOCLDY   -18 -26  69 NW13      30.30S WCI -41
GILLAM         CLOUDY   -11 -22  58 NW9       30.28S WCI -29
$$
                ***SASKATCHEWAN***

CITY           SKY/WX    TMP DP  RH WIND       PRES   REMARKS
ESTEVAN        LGT SNOW N/A N/A N/A NW20        N/A  DRFTSNOW
KINDERSLEY     PTSUNNY   32  25  74 NW20G25   30.20R WCI  20
LLOYDMINSTER   MOSUNNY   14   5  67 NW20G28   30.24R WCI  -3
PRINCE ALBERT  FLURRIES  19  16  86 NW14      30.14R WCI   6
REGINA         CLOUDY    30  27  86 NW25G36   30.08R WCI  16
YORKTON        CLOUDY    16  12  86 NW9       30.05R WCI   4
N. BATTLEFORD  CLOUDY    23  19  86 NW18G25   30.21R WCI   9
LA RONGE       FLURRIES   3  -2  78 NW13      30.21R WCI -14
SASKATOON      CLOUDY    27  21  80 NW17G24   30.16R WCI  14
SWIFT CURRENT  CLOUDY    30  30 100 W17G23    30.16R WCI  18
$$
NOTE: THESE ARE AUTOMATED STATIONS WITH LIMITED QUALITY CONTROL
      "FAIR" INDICATES FEW OR NO CLOUDS BELOW 12,000 FEET WITH NO
      SIGNIFICANT WEATHER AND/OR OBSTRUCTIONS TO VISIBILITY.
      SKY/WX - SKY CONDITION AND SIGNIFICANT WEATHER.
      TMP - AIR TEMPERATURE.    DP   - DEWPOINT TEMPERATURE.
      RH  - RELATIVE HUMIDITY.  PRES - PRESSURE.
      HX  - HEAT INDEX.         WCI  - WIND CHILL INDEX.
$



USA.gov is the U.S. government's official web portal to all federal, state and local government web resources and services.